{"data":{"norad_id":55579,"epoch":"2026-09-20T05:12:21.921696Z","epoch_age_seconds":124829,"freshness":"FRESH","line1":"1 55579U 23020L   26263.21692039 -.00000524  00000+0 -95238-5 0  9993","line2":"2 55579  43.0049 346.5778 0001259 284.9356  75.1357 15.27573450198664","mean_motion":15.2757345,"eccentricity":0.0001259,"inclination_deg":43.0049,"raan_deg":346.5778,"arg_perigee_deg":284.9356,"mean_anomaly_deg":75.1357,"bstar":-9.5238e-6,"rev_number":19866,"period_min":94.267152914971,"perigee_km":482.2048833673,"apogee_km":483.93253496487,"semimajor_km":6861.2057091661,"source":"CELESTRAK","updated_at":"2026-09-21T09:00:33.264754Z"}}